When you browse on this site, cookies collect data to enhance your experience and personalize the content and advertising you see.
Visit our Privacy Policy to learn more. By continuing to use the site, you agree to this use of cookies and data.
  • In Hungary
  • List of Countries
  • For 7 days
  • Water Temperature
  • Weather Map
  • News
  • Weather Widgets
  • user-avatar
    Login

    Hourly Weather Timhovo

    Today, 24 January, Friday

    Time Temperature Precipitation Wind Pressure Humidity
    00:00 -8°C° 0 mm 3 mps 735 mmHg 82%
    01:00 -7°C° 0 mm 3 mps 734 mmHg 82%
    02:00 -7°C° 0 mm 3 mps 734 mmHg 82%
    03:00 -7°C° 0.1 mm 3 mps 733 mmHg 85%
    04:00 -7°C° 0.1 mm 4 mps 732 mmHg 89%
    05:00 -7°C° 0.1 mm 4 mps 731 mmHg 92%
    06:00 -6°C° 0.3 mm 5 mps 730 mmHg 92%
    07:00 -6°C° 0.3 mm 5 mps 729 mmHg 93%
    08:00 -5°C° 0 mm 6 mps 728 mmHg 93%
    09:00 -4°C° 0.1 mm 6 mps 728 mmHg 90%
    10:00 -4°C° 0.1 mm 6 mps 727 mmHg 88%
    11:00 -3°C° 0.1 mm 6 mps 727 mmHg 85%
    12:00 -1°C° 0 mm 5 mps 727 mmHg 86%
    13:00 -1°C° 0 mm 5 mps 726 mmHg 86%
    14:00 -1°C° 0 mm 5 mps 726 mmHg 87%
    15:00 -1°C° 0 mm 5 mps 726 mmHg 88%
    16:00 -1°C° 0 mm 4 mps 726 mmHg 88%
    17:00 -2°C° 0 mm 4 mps 726 mmHg 88%
    18:00 -2°C° 0 mm 4 mps 725 mmHg 88%
    19:00 -3°C° 0 mm 4 mps 725 mmHg 88%
    20:00 -3°C° 0 mm 4 mps 725 mmHg 89%
    21:00 -3°C° 0 mm 4 mps 725 mmHg 88%
    22:00 -3°C° 0 mm 4 mps 725 mmHg 87%
    23:00 -3°C° 0 mm 4 mps 725 mmHg 87%

    Tomorrow, 25 January, Saturday

    Time Temperature Precipitation Wind Pressure Humidity
    00:00 -3°C° 0 mm 4 mps 725 mmHg 88%
    01:00 -4°C° 0 mm 4 mps 725 mmHg 89%
    02:00 -4°C° 0 mm 4 mps 725 mmHg 89%
    03:00 -4°C° 0 mm 4 mps 725 mmHg 89%
    04:00 -5°C° 0 mm 5 mps 725 mmHg 88%
    05:00 -4°C° 0 mm 5 mps 725 mmHg 88%
    06:00 -4°C° 0 mm 5 mps 724 mmHg 86%
    07:00 -4°C° 0 mm 4 mps 724 mmHg 85%
    08:00 -4°C° 0 mm 4 mps 724 mmHg 83%
    09:00 -3°C° 0.1 mm 4 mps 723 mmHg 86%
    10:00 -3°C° 0.1 mm 4 mps 723 mmHg 88%
    11:00 -2°C° 0.1 mm 4 mps 722 mmHg 91%
    12:00 -4°C° 0.7 mm 5 mps 722 mmHg 84%
    13:00 -4°C° 0.7 mm 6 mps 722 mmHg 77%
    14:00 -4°C° 0.7 mm 6 mps 722 mmHg 70%
    15:00 -5°C° 0 mm 6 mps 722 mmHg 72%
    16:00 -5°C° 0 mm 6 mps 723 mmHg 75%
    17:00 -6°C° 0 mm 6 mps 723 mmHg 78%
    18:00 -6°C° 0 mm 6 mps 724 mmHg 80%
    19:00 -6°C° 0 mm 6 mps 724 mmHg 82%
    20:00 -6°C° 0 mm 6 mps 725 mmHg 85%
    21:00 -6°C° 0 mm 6 mps 726 mmHg 84%
    22:00 -6°C° 0 mm 6 mps 727 mmHg 84%
    23:00 -6°C° 0 mm 6 mps 728 mmHg 84%

    Day after tomorrow, 26 January, Sunday

    Time Temperature Precipitation Wind Pressure Humidity
    00:00 -6°C° 0 mm 6 mps 729 mmHg 83%
    01:00 -8°C° 0 mm 6 mps 730 mmHg 83%
    02:00 -7°C° 0 mm 5 mps 731 mmHg 83%
    03:00 -7°C° 0 mm 5 mps 731 mmHg 84%
    04:00 -7°C° 0 mm 5 mps 732 mmHg 85%
    05:00 -7°C° 0 mm 5 mps 733 mmHg 86%
    06:00 -7°C° 0 mm 5 mps 733 mmHg 86%
    07:00 -7°C° 0 mm 4 mps 734 mmHg 86%
    08:00 -8°C° 0 mm 4 mps 735 mmHg 87%
    09:00 -7°C° 0 mm 4 mps 735 mmHg 85%
    10:00 -6°C° 0 mm 3 mps 735 mmHg 84%
    11:00 -6°C° 0 mm 3 mps 736 mmHg 82%
    12:00 -5°C° 0 mm 3 mps 736 mmHg 82%
    13:00 -5°C° 0 mm 3 mps 735 mmHg 82%
    14:00 -5°C° 0 mm 3 mps 735 mmHg 82%
    15:00 -5°C° 0.4 mm 4 mps 734 mmHg 86%
    16:00 -5°C° 0.4 mm 4 mps 733 mmHg 90%
    17:00 -6°C° 0.4 mm 5 mps 733 mmHg 94%
    18:00 -4°C° 0.5 mm 5 mps 732 mmHg 95%
    19:00 -2°C° 0.5 mm 5 mps 732 mmHg 96%
    20:00 -1°C° 0.5 mm 5 mps 731 mmHg 97%
    21:00 0°C° 0.4 mm 5 mps 731 mmHg 96%
    22:00 0°C° 0.4 mm 5 mps 731 mmHg 96%
    23:00 +1°C° 0.4 mm 6 mps 731 mmHg 95%

    27 January, Monday

    Time Temperature Precipitation Wind Pressure Humidity
    00:00 +1°C° 0.2 mm 6 mps 731 mmHg 95%
    01:00 +1°C° 0.2 mm 6 mps 731 mmHg 95%
    02:00 +1°C° 0.2 mm 5 mps 732 mmHg 95%
    03:00 0°C° 0.2 mm 5 mps 732 mmHg 96%
    04:00 0°C° 0.2 mm 5 mps 733 mmHg 96%
    05:00 0°C° 0.2 mm 4 mps 733 mmHg 97%
    06:00 0°C° 0.2 mm 3 mps 734 mmHg 97%
    07:00 +1°C° 0.2 mm 2 mps 734 mmHg 97%
    08:00 -1°C° 0.2 mm 2 mps 735 mmHg 98%
    09:00 +1°C° 0.2 mm 1 mps 735 mmHg 97%
    10:00 +1°C° 0.2 mm 1 mps 735 mmHg 97%
    11:00 +1°C° 0.2 mm 1 mps 736 mmHg 97%
    12:00 +1°C° 0.2 mm 1 mps 736 mmHg 97%
    13:00 +1°C° 0.2 mm 1 mps 736 mmHg 97%
    14:00 +1°C° 0.2 mm 1 mps 736 mmHg 97%
    15:00 +1°C° 0.4 mm 1 mps 736 mmHg 97%
    16:00 -1°C° 0.4 mm 2 mps 736 mmHg 97%
    17:00 -1°C° 0.4 mm 2 mps 736 mmHg 98%
    18:00 -1°C° 0.1 mm 2 mps 736 mmHg 98%
    19:00 -1°C° 0.1 mm 2 mps 736 mmHg 98%
    20:00 -1°C° 0.1 mm 2 mps 736 mmHg 98%
    21:00 -1°C° 0.2 mm 2 mps 736 mmHg 98%
    22:00 -1°C° 0.2 mm 2 mps 736 mmHg 98%
    23:00 +1°C° 0.2 mm 1 mps 736 mmHg 98%

    28 January, Tuesday

    Time Temperature Precipitation Wind Pressure Humidity
    00:00 +1°C° 0.1 mm 1 mps 736 mmHg 98%
    01:00 +1°C° 0.1 mm 1 mps 736 mmHg 98%
    02:00 +1°C° 0.1 mm 1 mps 736 mmHg 98%
    03:00 +1°C° 0.1 mm 1 mps 736 mmHg 98%
    04:00 +1°C° 0.1 mm 1 mps 736 mmHg 98%
    05:00 +2°C° 0.1 mm 1 mps 736 mmHg 98%
    06:00 +1°C° 0.1 mm 1 mps 736 mmHg 98%
    07:00 +1°C° 0.1 mm 1 mps 736 mmHg 98%
    08:00 +1°C° 0.1 mm 1 mps 736 mmHg 98%
    09:00 +2°C° 0.1 mm 1 mps 737 mmHg 98%
    10:00 +2°C° 0.1 mm 1 mps 737 mmHg 99%
    11:00 +2°C° 0.1 mm 1 mps 737 mmHg 99%
    12:00 +2°C° 0 mm 1 mps 737 mmHg 99%
    13:00 +2°C° 0 mm 1 mps 737 mmHg 99%
    14:00 +2°C° 0 mm 1 mps 737 mmHg 98%
    15:00 +2°C° 0 mm 1 mps 737 mmHg 98%
    16:00 -1°C° 0 mm 2 mps 737 mmHg 98%
    17:00 -1°C° 0 mm 2 mps 738 mmHg 98%
    18:00 -1°C° 0 mm 2 mps 738 mmHg 98%
    19:00 -1°C° 0 mm 2 mps 738 mmHg 98%
    20:00 -1°C° 0 mm 2 mps 738 mmHg 98%
    21:00 -1°C° 0.1 mm 3 mps 738 mmHg 97%
    22:00 -1°C° 0.1 mm 3 mps 738 mmHg 97%
    23:00 -1°C° 0.1 mm 3 mps 738 mmHg 97%

    29 January, Wednesday

    Time Temperature Precipitation Wind Pressure Humidity
    00:00 -1°C° 0 mm 3 mps 737 mmHg 96%
    01:00 -1°C° 0 mm 3 mps 737 mmHg 96%
    02:00 -1°C° 0 mm 3 mps 737 mmHg 95%
    03:00 -1°C° 0.1 mm 3 mps 737 mmHg 95%
    04:00 -2°C° 0.1 mm 3 mps 736 mmHg 95%
    05:00 -3°C° 0.1 mm 4 mps 736 mmHg 95%
    06:00 -3°C° 0.1 mm 4 mps 736 mmHg 94%
    07:00 -2°C° 0.1 mm 4 mps 736 mmHg 94%
    08:00 -2°C° 0.1 mm 4 mps 736 mmHg 94%
    09:00 -2°C° 0 mm 4 mps 736 mmHg 95%
    10:00 -2°C° 0 mm 4 mps 735 mmHg 96%
    11:00 -2°C° 0 mm 4 mps 735 mmHg 96%
    12:00 -2°C° 0 mm 4 mps 735 mmHg 96%
    13:00 -2°C° 0 mm 4 mps 735 mmHg 95%
    14:00 -2°C° 0 mm 5 mps 734 mmHg 95%
    15:00 -2°C° 0 mm 4 mps 734 mmHg 94%
    16:00 -2°C° 0 mm 4 mps 734 mmHg 94%
    17:00 -2°C° 0 mm 4 mps 734 mmHg 93%
    18:00 -2°C° 0 mm 4 mps 734 mmHg 94%
    19:00 -2°C° 0 mm 5 mps 733 mmHg 94%
    20:00 -2°C° 0 mm 5 mps 733 mmHg 95%
    21:00 -2°C° 0 mm 5 mps 733 mmHg 95%
    22:00 -2°C° 0 mm 5 mps 733 mmHg 95%
    23:00 -2°C° 0 mm 5 mps 732 mmHg 95%
    Show more